Regional Weather Roundup
Issued by NWS Sterling, VA

Home | Current Version | Previous Version | Graphics & Text | Print | Product List | Glossary On
Versions: 1 2 3 4 5 6 7 8 9 10 11 12 13 14 15 16 17 18 19 20 21 22 23 24 25 26 27 28 29 30 31 32 33 34 35 36 37 38 39 40 41 42 43 44 45 46 47 48 49 50
947
ASUS41 KLWX 090110
RWRLWX

REGIONAL WEATHER ROUNDUP
NATIONAL WEATHER SERVICE BALTIMORE MD/WASHINGTON DC
800 PM EST THU DEC 08 2016

Note: "FAIR" indicates few or no clouds below 12,000 feet
with no significant weather and/or obstructions to visibility.
 TC=TEMPERATURE CELSIUS

 * =Non NWS site. Station does not report precipitation (e.g. rain,
    snow, etc.), thunder, or fog.

DCZ001-MDZ009-015-VAZ040>042-051-053>054-090200-
WASHINGTON METRO

CITY           SKY/WX    TMP DP  RH WIND       PRES   REMARKS
WASHINGTON NAT PTCLDY    40  15  36 NW13      30.15R
DULLES         PTCLDY    35  14  42 NW17G23   30.15R WCI  25
ANDREWS AFB    PTCLDY    39  15  37 NW18G26   30.11R
FT BELVOIR     CLOUDY    39  14  36 NW14      30.14R
QUANTICO       CLOUDY    40  15  36 N9        30.15R
COLLEGE PARK*  PTCLDY    36  16  44 NW10G18   30.13R WCI  28
LEESBURG*      CLEAR     36  21  55 NW8       30.16R
GAITHERSBURG*  CLEAR     32  12  43 NW9G18    30.17R WCI  24

$$

MDZ006>007-011-014-090200-
BALTIMORE METRO

CITY           SKY/WX    TMP DP  RH WIND       PRES   REMARKS
BWI AIRPORT    PTCLDY    36  18  48 NW18G24   30.11R WCI  26
MD SCIENCE CTR   N/A     38  16  40 MISG      30.11R
MARTIN STATE   CLEAR     37  21  52 NW15G29   30.12R WCI  28
ANNAPOLIS      CLEAR     42  20  41 NW12      30.11R
FORT MEADE*    CLEAR     36  19  51 W17G23    30.14R WCI  25

$$

MDZ012-015-019>023-090200-
MARYLAND EASTERN SHORE

CITY           SKY/WX    TMP DP  RH WIND       PRES   REMARKS
OCEAN CITY     MOCLDY    40  29  64 W6        30.07R
SALISBURY      CLOUDY    42  22  44 W9        30.08R
BAY BRIDGE AP* CLEAR     39  19  45 NW15G21   30.11R

$$

MDZ017>025-090200-
SOUTHERN MARYLAND

CITY           SKY/WX    TMP DP  RH WIND       PRES   REMARKS
PATUXENT RIVER CLOUDY    42  20  41 NW15      30.11R
ST INIGOES     CLOUDY    44  22  41 NW10      30.10R
LEONARDTOWN*   CLOUDY    41  18  38 W7        30.12R

$$

MDZ003>005-090200-
NORTH CENTRAL MARYLAND

CITY           SKY/WX    TMP DP  RH WIND       PRES   REMARKS
FREDERICK*     NOT AVBL
HAGERSTOWN APT CLOUDY    32  11  41 NW15G24   30.15R WCI  22
WESTMINSTER*     N/A     30  12  47 W14       30.11R WCI  20

$$

MDZ501>502-090200-
WESTERN MARYLAND

CITY           SKY/WX    TMP DP  RH WIND       PRES   REMARKS
OAKLAND*       CLOUDY    19  12  73 W10G24    30.07S WCI   8
CUMBERLAND*    NOT AVBL

$$

VAZ025>031-090200-
SHENANDOAH VALLEY

CITY           SKY/WX    TMP DP  RH WIND       PRES   REMARKS
WINCHESTER*    MOCLDY    32  14  47 NW17G24   30.16R WCI  21
FRONT ROYAL*   FAIR      34  14  44 W14G20    30.15R WCI  24
LURAY*         FAIR      34  18  51 W8G18     30.15R WCI  27
NEW MARKET*    FAIR      32  12  43 W6        30.15R
STAUNTON*      CLEAR     32  12  44 NW8       30.17R WCI  24
WAYNESBORO*    FAIR      32   9  38 NW7       30.13R

$$

WVZ021-048>050-054>055-090200-
EASTERN WEST VIRGINIA PANHANDLE

CITY           SKY/WX    TMP DP  RH WIND       PRES   REMARKS
MARTINSBURG    CLOUDY    33  13  43 W17       30.16R WCI  22
PETERSBURG*    MOCLDY    33  15  47 W23G31    30.18R WCI  21

$$

VAZ036>039-050-090200-
CENTRAL FOOTHILLS

CITY           SKY/WX    TMP DP  RH WIND       PRES   REMARKS
CHARLOTTESVILL CLEAR     39  10  30 NW8       30.15R
CULPEPER*      PTCLDY    38  14  38 CALM      30.16R
ORANGE*          N/A     37  12  35 CALM      30.16R
GORDONSVILLE*  FAIR      38  12  33 W3        30.14R
WARRENTON*     FAIR      35  10  34 NW7       30.14R

$$

VAZ055>057-090200-
NORTH AND CENTRAL PIEDMONT

CITY           SKY/WX    TMP DP  RH WIND       PRES   REMARKS
FREDERICKSBRG* MOCLDY    40  17  39 NW10      30.14R
STAFFORD*      PTCLDY    36  18  46 NW13      30.18R WCI  28

$$

NCZ024-NYZ072-PAZ021-071-VAZ022-071-090200-
OTHER REGIONAL OBSERVATIONS

CITY           SKY/WX    TMP DP  RH WIND       PRES   REMARKS
NEW YORK CITY    N/A     39  18  41 MISG        N/A
PHILADELPHIA   PTCLDY    37  16  42 NW16      30.06R WCI  28
PITTSBURGH     CLOUDY    26  13  57 W16G23    30.20R WCI  14
ROANOKE        CLEAR     36   9  32 NW21G28   30.21R WCI  25
RICHMOND       CLOUDY    43  21  41 W8        30.13R
RALEIGH        MOCLDY    41  22  46 CALM      30.19S

$$

ANZ530>537-090200-
MARINE OBSERVATIONS

STATION/POSITION TIME  TEMP    WIND        PRES
                       AIR SEA DIR/SP/G
                 (UTC) (F)     (DEG/KT/KT) (MB)
THOMAS PT LIGHT  0000   43 48  300/ 18/ 20   N/A
BALT KEY BRIDGE  0048   39     300/ 22/ 26 1019.1R
COVE POINT       0048   42     330/ 13/ 19 1019.9R
LEWISETTA        0048   45 48  330/  9/ 11 1019.2R
SOLOMONS ISLAND  0036   44 50  310/  7/ 15   N/A
PINEY POINT      0048          340/ 21/ 24   N/A

$$





USA.gov is the U.S. government's official web portal to all federal, state and local government web resources and services.